Starlink 31470

operational
NORAD ID: 59569 Int'l Des: 2024-076 Owner: SPXS Country: US Constellation: starlink
LEOCIRCULAR

About Starlink 31470

Description loading...

Live Position

Loading 3D Globe...

Upcoming Passes

Altitude History

Altitude vs Time

uPlot chart will show altitude changes over time

Two-Line Element Set

1 59569U 24076F 25353.66701816 .00000604 00000-0 31472-4 0 9997
2 59569 42.9979 97.5272 0000857 244.6305 115.4458 15.27573754 94212
Epoch: Dec 19, 2025 • Age: 7 hours

Current Status

Altitude 484.7 km
Velocity 7.63 km/s
Sub-Earth Point 32.94°N, 73.22°E
Launch Date Apr 23, 2024
Age 1.6 years
Type internet

Technical Details

Classification Payload
Mass 730.00 kg
Dry Mass 700.00 kg
Total Mass 730.00 kg
Length 0.30 m
Diameter 4.10 m
Span 29.00 m
Shape Box + pan
Manufacturer SPXS
Bus Type Starlink V2M
Phase Status In Orbit
Owner/State SPXS/US

Large Constellations

Loading constellations...